WetterOnline ( https://www.wetteronline.de )

Wetter aktuell Straubing

Aktuelles Wetter: Straubing (360m)

6-stündlich | Neueste Meldungen
Ortszeit Temperatur Wetter
Fr, 24.05. 14:00 17.6° C leicht bewölkt
Fr, 24.05. 8:00 12.2° C bedeckt
Fr, 24.05. 2:00 12.4° C leichter Regen
Do, 23.05. 20:00 19.2° C bewölkt
Do, 23.05. 14:00 20.2° C wolkenlos
Do, 23.05. 8:00 14.4° C bewölkt
Do, 23.05. 2:00 14.2° C bedeckt
Mi, 22.05. 20:00 18.8° C wolkenlos
Ortszeit Temperatur Wetter
Fr, 24.05. 14:30 17.1° C leicht bewölkt
Fr, 24.05. 14:20 17.1° C leicht bewölkt
Fr, 24.05. 14:10 18.0° C fast wolkenlos
Fr, 24.05. 14:00 17.6° C leicht bewölkt
Fr, 24.05. 13:50 17.6° C leicht bewölkt
Fr, 24.05. 13:40 17.6° C wolkig
Fr, 24.05. 13:30 17.2° C bewölkt
Fr, 24.05. 13:00 17.0° C bedeckt
Fr, 24.05. 12:30 16.1° C leicht bewölkt
Fr, 24.05. 12:00 16.2° C leicht bewölkt
Fr, 24.05. 11:30 15.6° C bewölkt
Ortszeit Relative Feuchte Sichtweite
Fr, 24.05. 14:00 63% >70 km
Fr, 24.05. 8:00 91% 22 km
Fr, 24.05. 2:00 97% 19 km
Do, 23.05. 20:00 68% 60 km
Do, 23.05. 14:00 50% 65 km
Do, 23.05. 8:00 83% >70 km
Do, 23.05. 2:00 82% >70 km
Mi, 22.05. 20:00 60% 60 km
Ortszeit Relative Feuchte Sichtweite
Fr, 24.05. 14:30 63% 60 km
Fr, 24.05. 14:20 63% -
Fr, 24.05. 14:10 62% -
Fr, 24.05. 14:00 63% >70 km
Fr, 24.05. 13:50 63% -
Fr, 24.05. 13:40 63% -
Fr, 24.05. 13:30 65% 65 km
Fr, 24.05. 13:00 67% 50 km
Fr, 24.05. 12:30 73% 55 km
Fr, 24.05. 12:00 68% 50 km
Fr, 24.05. 11:30 73% >70 km
Ortszeit Niederschlagsmenge Niederschlagsart
Fr, 24.05. 14:00 0.1 l/m2 in 6 Std. Regen
Fr, 24.05. 8:00 14 l/m2 in 12 Std. Regen
Fr, 24.05. 2:00 13 l/m2 in 6 Std. Regen
Do, 23.05. 20:00 0.0 l/m2 in 12 Std. -
Do, 23.05. 14:00 0.0 l/m2 in 6 Std. -
Do, 23.05. 8:00 0.0 l/m2 in 12 Std. -
Do, 23.05. 2:00 0.0 l/m2 in 6 Std. -
Mi, 22.05. 20:00 0.6 l/m2 in 12 Std. Regen
Ortszeit Niederschlagsmenge Niederschlagsart
Fr, 24.05. 14:30 0.0 l/m2 in 30 Min -
Fr, 24.05. 14:20 keine Meldung -
Fr, 24.05. 14:10 keine Meldung -
Fr, 24.05. 14:00 0.0 l/m2 in 1 Std. Regen
Fr, 24.05. 13:50 keine Meldung -
Fr, 24.05. 13:40 keine Meldung -
Fr, 24.05. 13:30 0.0 l/m2 in 30 Min -
Fr, 24.05. 13:00 0.0 l/m2 in 1 Std. -
Fr, 24.05. 12:30 0.0 l/m2 in 30 Min -
Fr, 24.05. 12:00 0.0 l/m2 in 1 Std. -
Fr, 24.05. 11:30 0.0 l/m2 in 30 Min -
Ortszeit Stärke Spitze Richtung
km/h Bft. km/h Grad Sektor
Fr, 24.05. 14:00 9 2 24 210° SW
Fr, 24.05. 8:00 11 2 18 210° SW
Fr, 24.05. 2:00 4 1 40 220° SW
Do, 23.05. 20:00 4 1 32 30° NO
Do, 23.05. 14:00 7 2 18 30° NO
Do, 23.05. 8:00 7 2 18 240° SW
Do, 23.05. 2:00 7 2 14 240° SW
Mi, 22.05. 20:00 7 2 40 260° W
Ortszeit Stärke Spitze Richtung
km/h Bft. km/h Grad Sektor
Fr, 24.05. 14:30 9 2 17 190° S
Fr, 24.05. 14:20 9 2 - 190° S
Fr, 24.05. 14:10 7 2 - 170° S
Fr, 24.05. 14:00 9 2 24 210° SW
Fr, 24.05. 13:50 9 2 - 210° SW
Fr, 24.05. 13:40 9 2 - 200° S
Fr, 24.05. 13:30 11 2 18 220° SW
Fr, 24.05. 13:00 7 2 22 250° W
Fr, 24.05. 12:30 13 3 20 210° SW
Fr, 24.05. 12:00 7 2 14 200° S
Fr, 24.05. 11:30 7 2 14 180° S
Ortszeit Untergrenze Bedeckung Gattung
total tief tief mittel hoch
Fr, 24.05. 14:00 780 m 4/8 4/8 - - -
Fr, 24.05. 8:00 210 m 8/8 8/8 - - -
Fr, 24.05. 2:00 30 m 7/8 7/8 - - -
Do, 23.05. 20:00 5100 m 8/8 7/8 - - -
Do, 23.05. 14:00 - 0/8 0/8 - - -
Do, 23.05. 8:00 1320 m 7/8 - - - -
Do, 23.05. 2:00 2700 m 8/8 - - - -
Mi, 22.05. 20:00 - 0/8 0/8 - - -
Ortszeit Bedeckungsgrad in Achtel und Wolkenuntergrenze
Fr, 24.05. 14:30 2(840m)
Fr, 24.05. 14:20 2
Fr, 24.05. 14:10 1
Fr, 24.05. 14:00 4(780m)
Fr, 24.05. 13:50 4
Fr, 24.05. 13:40 6
Fr, 24.05. 13:30 7(780m)
Fr, 24.05. 13:00 8(690m)
Fr, 24.05. 12:30 4(630m)
Fr, 24.05. 12:00 4(570m)
Fr, 24.05. 11:30 7(570m)
Ortszeit Luftdruck NN (hPa) Tendenz (hPa in 3 Std.)
Fr, 24.05. 14:00 1018 - 0,5
Fr, 24.05. 8:00 1019 + 0,6
Fr, 24.05. 2:00 1018 + 0,3
Do, 23.05. 20:00 1013 + 0,3
Do, 23.05. 14:00 1015 - 0,8
Do, 23.05. 8:00 1017 + 1,2
Do, 23.05. 2:00 1015 + 0,3
Mi, 22.05. 20:00 1012 + 0,3
Ortszeit Luftdruck NN (hPa) Tendenz (hPa in 3 Std.)
Fr, 24.05. 14:30 1018 - 0,7
Fr, 24.05. 14:20 1018 keine Meldung
Fr, 24.05. 14:10 1017 keine Meldung
Fr, 24.05. 14:00 1018 - 0,5
Fr, 24.05. 13:50 1018 keine Meldung
Fr, 24.05. 13:40 1018 keine Meldung
Fr, 24.05. 13:30 1018 - 0,2
Fr, 24.05. 13:00 1018 0,0
Fr, 24.05. 12:30 1019 + 0,1
Fr, 24.05. 12:00 1018 0,0
Fr, 24.05. 11:30 1019 + 0,1
Ortszeit Schneehöhe (cm)
Fr, 24.05. 14:00 0
Fr, 24.05. 8:00 0
Fr, 24.05. 2:00 0
Do, 23.05. 20:00 0
Do, 23.05. 14:00 0
Do, 23.05. 8:00 0
Do, 23.05. 2:00 0
Mi, 22.05. 20:00 0
Ortszeit Schneehöhe (cm)
Fr, 24.05. 14:30 0
Fr, 24.05. 14:20 0
Fr, 24.05. 14:10 -
Fr, 24.05. 14:00 0
Fr, 24.05. 13:50 0
Fr, 24.05. 13:40 -
Fr, 24.05. 13:30 0
Fr, 24.05. 13:00 0
Fr, 24.05. 12:30 0
Fr, 24.05. 12:00 0
Fr, 24.05. 11:30 0
Link zu dieser Seite / Seite empfehlen

Das Wetter in ...